EW5637 Weather Reports


time (UTC)temp
C
wind
direction
speed
KPH
gust
KPH
rain 1hr
cm
rain 24hr
cm
rain mn
cm
humidity
%
barometer
mb
20260507130540 11 318 8.0 14.5 0.00 0.56 0.00 55 1012.9
20260507130043 11 330 8.0 17.7 0.00 0.56 0.00 56 1012.9
20260507125542 11 313 11.3 19.3 0.00 0.61 0.00 56 1012.9
20260507125040 11 317 11.3 19.3 0.00 0.61 0.00 56 1012.7
20260507124551 10 304 11.3 19.3 0.00 0.61 0.00 58 1012.7
20260507124040 10 306 6.4 17.7 0.00 0.61 0.00 59 1012.6
20260507123541 10 314 9.7 17.7 0.00 0.61 0.00 59 1012.6
20260507123050 10 315 6.4 14.5 0.00 0.61 0.00 60 1012.6
20260507122540 10 315 8.0 14.5 0.00 0.61 0.00 62 1012.6
20260507122041 10 318 8.0 12.9 0.00 0.61 0.00 61 1012.5
20260507121548 10 321 4.8 12.9 0.00 0.61 0.00 65 1012.5
20260507121041 10 323 8.0 12.9 0.00 0.61 0.00 65 1012.6
20260507120541 10 322 6.4 12.9 0.00 0.61 0.00 66 1012.5
20260507120048 10 311 6.4 11.3 0.00 0.61 0.00 64 1012.7
20260507115541 10 313 6.4 9.7 0.00 0.74 0.00 64 1012.8
20260507115041 9 319 6.4 8.0 0.00 0.74 0.00 64 1012.7
20260507114556 9 304 4.8 14.5 0.00 0.74 0.00 65 1012.7
20260507114044 9 304 4.8 14.5 0.00 0.74 0.00 66 1012.8
20260507113541 9 300 6.4 11.3 0.00 0.74 0.00 64 1012.8
20260507113044 9 296 4.8 11.3 0.00 0.74 0.00 65 1012.7
20260507112541 9 312 3.2 9.7 0.00 0.74 0.00 67 1012.7
20260507112041 9 312 3.2 11.3 0.00 0.74 0.00 67 1012.7
20260507111551 9 313 4.8 11.3 0.00 0.74 0.00 69 1012.7
20260507111045 8 298 1.6 4.8 0.00 0.74 0.00 74 1012.5
20260507110540 8 0 0.0 4.8 0.00 0.74 0.00 77 1012.4
20260507110050 8 27 0.0 4.8 0.00 0.74 0.00 78 1012.3
20260507105542 8 0 0.0 0.0 0.00 0.74 0.00 79 1012.2
20260507105044 8 0 0.0 0.0 0.00 0.74 0.00 80 1012.4
20260507104555 8 0 0.0 0.0 0.00 0.74 0.00 77 1012.3
20260507104045 8 0 0.0 4.8 0.00 0.74 0.00 79 1012.3
20260507103540 8 0 0.0 4.8 0.00 0.74 0.00 81 1012.3
20260507103049 8 0 0.0 4.8 0.00 0.74 0.00 81 1012.1
20260507102541 8 0 0.0 3.2 0.00 0.74 0.00 81 1012.0
20260507102041 8 0 0.0 4.8 0.00 0.74 0.00 83 1011.8
20260507101549 8 28 1.6 4.8 0.00 0.74 0.00 82 1011.7
20260507101043 8 0 0.0 0.0 0.00 0.74 0.00 82 1011.6
20260507100540 8 0 0.0 0.0 0.00 0.74 0.00 83 1011.7
20260507100054 8 0 0.0 0.0 0.00 0.74 0.00 83 1011.7
20260507095538 8 0 0.0 0.0 0.00 0.74 0.00 81 1011.7
20260507095039 8 0 0.0 0.0 0.00 0.74 0.00 79 1011.7
20260507094547 8 0 0.0 0.0 0.00 0.74 0.00 79 1011.7
20260507094037 8 0 0.0 0.0 0.00 0.74 0.00 79 1011.8
20260507093537 8 0 0.0 3.2 0.00 0.74 0.00 80 1011.7
20260507093058 9 0 0.0 3.2 0.00 0.74 0.00 77 1011.7
20260507092542 9 28 0.0 3.2 0.00 0.74 0.00 76 1011.8
20260507092042 10 0 0.0 4.8 0.00 0.74 0.00 76 1011.6
20260507091554 10 28 1.6 4.8 0.00 0.74 0.00 71 1011.7
20260507091042 10 28 0.0 3.2 0.00 0.74 0.00 70 1011.7
20260507090541 10 0 0.0 0.0 0.00 0.74 0.00 72 1011.6
20260507090046 10 0 0.0 0.0 0.00 0.74 0.00 73 1011.6
20260507085542 10 0 0.0 6.4 0.00 0.74 0.00 70 1011.4
20260507085047 10 0 1.6 6.4 0.00 0.74 0.00 65 1011.3
20260507084551 10 30 3.2 12.9 0.00 0.74 0.00 68 1011.2
20260507084041 10 29 3.2 12.9 0.00 0.74 0.00 68 1011.3
20260507083543 10 9 4.8 12.9 0.00 0.74 0.00 67 1011.3
20260507083044 10 331 1.6 14.5 0.00 0.74 0.00 72 1011.3
20260507082544 10 329 4.8 14.5 0.00 0.74 0.00 71 1011.3
20260507082041 10 311 11.3 14.5 0.00 0.74 0.00 71 1011.2
20260507081550 10 350 9.7 14.5 0.00 0.74 0.00 74 1011.3
20260507081041 10 317 3.2 9.7 0.00 0.74 0.00 79 1011.2
20260507080543 10 323 3.2 8.0 0.00 0.74 0.00 82 1011.2
20260507080047 10 331 1.6 6.4 0.00 0.74 0.00 82 1011.2
20260507075542 10 331 4.8 6.4 0.00 0.74 0.00 82 1011.2
20260507075045 10 315 3.2 6.4 0.00 0.74 0.00 85 1011.3
20260507074549 10 315 0.0 0.0 0.00 0.74 0.00 86 1011.3
20260507074042 10 0 0.0 0.0 0.00 0.74 0.00 86 1011.3
20260507073543 10 0 0.0 1.6 0.00 0.74 0.00 86 1011.3
20260507073052 10 0 0.0 1.6 0.00 0.74 0.00 86 1011.3
20260507072542 10 0 0.0 3.2 0.00 0.74 0.00 85 1011.3
20260507072045 10 0 0.0 3.2 0.00 0.74 0.00 85 1011.4
20260507071551 10 0 0.0 4.8 0.00 0.74 0.00 84 1011.3
20260507071042 10 0 0.0 6.4 0.00 0.74 0.00 84 1011.4
20260507070542 10 315 1.6 6.4 0.00 0.74 0.00 82 1011.5
20260507070059 11 317 3.2 6.4 0.00 0.74 0.00 81 1011.6
20260507065544 11 317 4.8 8.0 0.00 0.74 0.00 81 1011.6
20260507065041 11 317 3.2 8.0 0.00 0.74 0.00 80 1011.6
20260507064548 11 319 4.8 8.0 0.00 0.74 0.00 81 1011.6
20260507064042 11 331 4.8 9.7 0.00 0.74 0.00 80 1011.4
20260507063545 11 329 3.2 9.7 0.00 0.74 0.00 81 1011.6
20260507063053 11 296 0.0 3.2 0.00 0.74 0.00 82 1011.3
20260507062541 11 0 0.0 4.8 0.00 0.74 0.00 82 1011.5
20260507062037 11 0 0.0 4.8 0.00 0.74 0.00 82 1011.7
20260507061552 11 0 0.0 1.6 0.00 0.74 0.00 82 1011.4
20260507061042 11 0 0.0 1.6 0.00 0.74 0.00 82 1011.5
20260507060541 11 0 0.0 0.0 0.00 0.74 0.00 81 1011.6
20260507060058 11 0 0.0 0.0 0.00 0.74 0.00 81 1011.6
20260507055541 11 0 0.0 0.0 0.00 0.74 0.00 80 1011.4
20260507055042 11 0 0.0 0.0 0.00 0.74 0.00 79 1011.4
20260507054549 11 0 0.0 1.6 0.00 0.74 0.00 78 1011.4
20260507054042 11 0 0.0 3.2 0.00 0.74 0.00 77 1011.2
20260507053542 11 0 0.0 6.4 0.00 0.74 0.00 76 1011.1
20260507053054 11 290 3.2 6.4 0.00 0.74 0.00 76 1011.1
20260507052538 11 19 0.0 3.2 0.00 0.74 0.00 78 1011.1
20260507052042 11 19 0.0 3.2 0.00 0.74 0.00 78 1011.0
20260507051552 11 0 0.0 3.2 0.00 0.74 0.00 79 1011.0
20260507051041 11 0 0.0 4.8 0.00 0.74 0.00 78 1010.9
20260507050539 12 0 0.0 4.8 0.00 0.74 0.00 78 1011.0
20260507050052 12 19 0.0 8.0 0.00 0.74 0.00 77 1011.1
20260507045541 12 19 3.2 8.0 0.00 0.74 0.00 77 1011.1
20260507045041 12 55 0.0 6.4 0.00 0.74 0.00 76 1011.2
20260507044559 12 81 4.8 6.4 0.00 0.74 0.00 77 1011.1
20260507044041 12 19 1.6 11.3 0.00 0.74 0.00 76 1011.0
20260507043540 12 328 3.2 11.3 0.00 0.74 0.00 76 1011.2
20260507043048 12 0 1.6 9.7 0.00 0.74 0.00 77 1011.1
20260507042542 12 329 4.8 14.5 0.00 0.74 0.00 77 1011.0
20260507042044 12 360 4.8 14.5 0.00 0.74 0.00 78 1011.1
20260507041550 12 360 8.0 14.5 0.00 0.74 0.00 79 1010.8
20260507041038 12 311 3.2 12.9 0.00 0.74 0.00 78 1010.9
20260507040543 12 311 6.4 12.9 0.00 0.74 0.00 78 1011.1
20260507040045 12 5 0.0 8.0 0.00 0.74 0.00 80 1011.1
20260507035541 12 0 0.0 8.0 0.00 0.74 0.74 79 1011.0
20260507035042 12 9 3.2 9.7 0.00 0.74 0.74 79 1010.9
20260507034608 12 18 4.8 9.7 0.00 0.74 0.74 79 1010.8
20260507034037 12 26 3.2 11.3 0.00 0.74 0.74 79 1010.6
20260507033541 12 5 1.6 12.9 0.00 0.74 0.74 80 1010.8
20260507033049 12 28 6.4 12.9 0.00 0.74 0.74 81 1010.9
20260507032542 12 86 1.6 16.1 0.00 0.74 0.74 81 1011.0
20260507032040 12 14 0.0 16.1 0.00 0.74 0.74 82 1010.8
20260507031553 12 11 6.4 16.1 0.00 0.74 0.74 81 1011.1
20260507031041 12 5 8.0 14.5 0.00 0.74 0.74 80 1011.0
20260507030543 12 0 1.6 6.4 0.00 0.74 0.74 80 1010.8
20260507030050 12 0 1.6 8.0 0.00 0.74 0.74 80 1010.8
20260507025544 12 0 1.6 8.0 0.00 0.74 0.74 81 1011.0
20260507025038 12 0 3.2 17.7 0.00 0.74 0.74 81 1011.0
20260507024555 12 325 4.8 19.3 0.00 0.74 0.74 82 1010.7
20260507024038 12 340 11.3 19.3 0.00 0.74 0.74 82 1010.4
20260507023540 12 344 12.9 20.9 0.00 0.74 0.74 82 1010.4
20260507023051 12 50 8.0 20.9 0.00 0.74 0.74 82 1010.6
20260507022537 12 336 3.2 20.9 0.00 0.74 0.74 82 1010.8
20260507022038 12 308 14.5 20.9 0.00 0.74 0.74 82 1010.7
20260507021551 13 330 11.3 22.5 0.00 0.74 0.74 82 1010.5
20260507021040 12 270 9.7 22.5 0.00 0.74 0.74 83 1010.8
20260507020541 12 305 12.9 22.5 0.00 0.74 0.74 83 1010.6
20260507020051 12 321 6.4 22.5 0.00 0.74 0.74 84 1010.4
20260507015541 12 314 9.7 17.7 0.00 0.74 0.74 84 1010.6
20260507015041 12 319 11.3 17.7 0.00 0.74 0.74 84 1010.3
20260507014554 13 319 9.7 16.1 0.00 0.74 0.74 84 1010.3
20260507014041 13 321 6.4 12.9 0.00 0.74 0.74 83 1010.4
20260507013541 13 326 4.8 14.5 0.00 0.74 0.74 83 1010.4
20260507013100 13 300 6.4 14.5 0.00 0.74 0.74 82 1010.5
20260507012540 13 336 3.2 12.9 0.00 0.74 0.74 82 1010.3
20260507012041 13 341 6.4 14.5 0.00 0.74 0.74 82 1010.3
20260507011545 13 346 3.2 22.5 0.00 0.74 0.74 82 1010.1
20260507011042 13 9 12.9 25.7 0.00 0.74 0.74 82 1010.0
20260507010540 14 349 12.9 25.7 0.00 0.74 0.74 82 1010.1
20260507010053 14 325 17.7 25.7 0.00 0.74 0.74 82 1010.3
20260507005540 14 321 16.1 22.5 0.00 0.74 0.74 82 1010.4
20260507005043 14 321 11.3 22.5 0.00 0.74 0.74 82 1010.2
20260507004550 14 322 14.5 24.1 0.00 0.74 0.74 82 1010.1
20260507004041 14 331 11.3 29.0 0.00 0.74 0.74 82 1010.1
20260507003542 14 315 16.1 29.0 0.00 0.74 0.74 82 1010.1
20260507003047 15 303 17.7 25.7 0.00 0.74 0.74 82 1010.0
20260507002544 15 289 16.1 25.7 0.00 0.74 0.74 82 1009.9
20260507002041 15 319 14.5 20.9 0.00 0.74 0.74 83 1009.7
20260507001553 15 288 12.9 20.9 0.00 0.74 0.74 83 1009.7
20260507001040 15 322 6.4 14.5 0.00 0.74 0.74 83 1009.6
20260507000544 15 300 9.7 14.5 0.00 0.74 0.74 83 1009.7
20260507000055 15 288 3.2 12.9 0.00 0.74 0.74 83 1009.6
20260506235541 15 268 8.0 12.9 0.00 0.74 0.74 83 1009.5
20260506235043 15 307 1.6 11.3 0.00 0.74 0.74 84 1009.3
20260506234543 16 309 3.2 9.7 0.00 0.74 0.74 84 1008.9
20260506234039 16 302 1.6 9.7 0.00 0.74 0.74 83 1008.7
20260506233540 16 313 0.0 22.5 0.00 0.74 0.74 84 1008.6
20260506233052 16 0 4.8 22.5 0.00 0.74 0.74 84 1008.7
20260506232537 16 284 9.7 22.5 0.00 0.74 0.74 84 1008.7
20260506232040 16 264 6.4 19.3 0.00 0.74 0.74 83 1008.5
20260506231551 16 309 4.8 19.3 0.00 0.74 0.74 84 1008.6
20260506231041 16 281 12.9 19.3 0.00 0.74 0.74 84 1008.7
20260506230540 16 302 4.8 17.7 0.03 0.74 0.74 85 1008.5
20260506230050 16 273 8.0 19.3 0.03 0.74 0.74 85 1008.4
20260506225541 16 289 12.9 19.3 0.03 0.74 0.74 85 1008.4
20260506225041 17 304 11.3 19.3 0.03 0.74 0.74 85 1008.2
20260506224602 17 300 9.7 19.3 0.03 0.74 0.74 85 1008.2
20260506224042 17 258 8.0 19.3 0.03 0.74 0.74 85 1008.4
20260506223540 17 241 4.8 14.5 0.03 0.74 0.74 86 1008.3
20260506223051 17 266 6.4 14.5 0.03 0.74 0.74 87 1008.3
20260506222540 17 273 4.8 12.9 0.03 0.74 0.74 87 1008.1
20260506222040 17 249 3.2 12.9 0.03 0.74 0.74 87 1008.3
20260506221554 17 261 1.6 17.7 0.03 0.74 0.74 86 1008.3
20260506221041 17 305 6.4 19.3 0.03 0.74 0.74 85 1008.2
20260506220541 17 252 9.7 19.3 0.00 0.71 0.71 85 1008.3
20260506220045 18 257 4.8 14.5 0.00 0.71 0.71 86 1008.2
20260506215542 18 289 6.4 12.9 0.00 0.71 0.71 85 1008.3
20260506215041 18 221 0.0 6.4 0.00 0.71 0.71 85 1007.8
20260506214606 18 0 1.6 9.7 0.00 0.71 0.71 85 1007.9
20260506214041 18 0 0.0 16.1 0.00 0.71 0.71 85 1007.6
20260506213543 18 221 3.2 16.1 0.00 0.71 0.71 85 1007.7
20260506213047 18 166 6.4 14.5 0.00 0.71 0.71 84 1007.6
20260506212541 18 0 1.6 11.3 0.00 0.71 0.71 84 1007.6
20260506212041 18 227 1.6 11.3 0.00 0.71 0.71 84 1007.5
20260506211554 18 0 3.2 12.9 0.00 0.71 0.71 84 1007.3
20260506211041 18 212 0.0 14.5 0.00 0.71 0.71 86 1007.4
20260506210541 18 0 6.4 14.5 0.00 0.71 0.71 85 1007.4
20260506210053 18 229 1.6 11.3 0.00 0.71 0.71 86 1007.5
20260506205540 18 0 3.2 11.3 0.00 0.71 0.71 86 1007.3
20260506205040 18 250 1.6 4.8 0.00 0.71 0.71 87 1007.3
20260506204610 18 0 0.0 6.4 0.00 0.71 0.71 87 1007.3
20260506204041 18 252 0.0 6.4 0.00 0.71 0.71 87 1007.3
20260506203541 18 220 0.0 6.4 0.00 0.71 0.71 88 1007.3
20260506203052 18 182 0.0 8.0 0.00 0.71 0.71 88 1007.1
20260506202540 18 192 3.2 11.3 0.00 0.71 0.71 88 1007.1
20260506202040 18 192 4.8 11.3 0.00 0.71 0.71 89 1007.2
20260506201552 18 0 1.6 9.7 0.00 0.71 0.71 90 1007.2
20260506201040 18 0 3.2 9.7 0.00 0.71 0.71 91 1007.3
20260506200538 17 173 0.0 9.7 0.00 0.71 0.71 91 1007.3
20260506200048 17 182 1.6 6.4 0.00 0.71 0.71 91 1007.2
20260506195541 17 0 0.0 6.4 0.00 0.71 0.71 92 1007.3
20260506195044 17 176 1.6 8.0 0.03 0.71 0.71 92 1007.4
20260506194605 17 0 3.2 9.7 0.03 0.71 0.71 92 1007.3
20260506194046 17 0 1.6 9.7 0.03 0.71 0.71 92 1007.4
20260506193541 17 134 1.6 14.5 0.05 0.71 0.71 92 1007.4
20260506193054 17 125 6.4 14.5 0.05 0.71 0.71 92 1007.4
20260506192540 17 119 1.6 6.4 0.05 0.71 0.71 93 1007.3
20260506192041 17 0 1.6 8.0 0.05 0.71 0.71 93 1007.4
20260506191552 16 138 3.2 8.0 0.08 0.71 0.71 93 1007.4
20260506191040 16 156 0.0 8.0 0.08 0.71 0.71 92 1007.5
20260506190540 16 157 3.2 11.3 0.08 0.71 0.71 92 1007.6
20260506190051 16 138 3.2 11.3 0.08 0.71 0.71 92 1007.5
20260506185541 16 138 3.2 8.0 0.08 0.71 0.71 92 1007.6
20260506185041 16 138 3.2 12.9 0.05 0.69 0.69 92 1007.7
20260506184551 16 132 4.8 12.9 0.05 0.69 0.69 92 1007.7
20260506184041 16 134 6.4 11.3 0.05 0.69 0.69 91 1007.7
20260506183541 16 146 4.8 9.7 0.03 0.66 0.66 91 1007.8
20260506183056 16 159 3.2 14.5 0.03 0.66 0.66 91 1007.9
20260506182540 16 137 4.8 14.5 0.03 0.66 0.66 91 1007.8
20260506182040 16 165 4.8 14.5 0.03 0.66 0.66 91 1007.8
20260506181547 16 169 4.8 14.5 0.00 0.64 0.64 90 1007.9
20260506181042 16 122 6.4 14.5 0.00 0.64 0.64 90 1007.8
20260506180541 16 152 4.8 12.9 0.00 0.64 0.64 89 1007.8
20260506180049 16 157 4.8 11.3 0.00 0.64 0.64 89 1007.8
20260506175541 16 163 4.8 11.3 0.00 0.64 0.64 89 1007.8
20260506175044 16 178 3.2 11.3 0.00 0.64 0.64 89 1007.8
20260506174555 16 150 4.8 12.9 0.00 0.64 0.64 89 1007.8
20260506174041 16 166 3.2 14.5 0.00 0.64 0.64 89 1007.8
20260506173544 16 140 4.8 14.5 0.00 0.64 0.64 89 1007.8
20260506173053 16 154 6.4 12.9 0.00 0.64 0.64 88 1007.7
20260506172541 16 169 3.2 12.9 0.00 0.64 0.64 89 1007.7
20260506172042 16 192 4.8 12.9 0.00 0.64 0.64 88 1007.7
20260506171558 16 165 1.6 12.9 0.00 0.64 0.64 89 1007.7
20260506171041 16 155 3.2 11.3 0.00 0.64 0.64 89 1007.7
20260506170540 16 0 1.6 12.9 0.00 0.64 0.64 90 1007.7
20260506170049 16 192 4.8 17.7 0.00 0.64 0.64 90 1007.7
20260506165542 16 166 6.4 17.7 0.00 0.64 0.64 89 1007.7
20260506165041 16 143 4.8 12.9 0.00 0.64 0.64 90 1007.8
20260506164558 16 169 3.2 16.1 0.00 0.64 0.64 90 1007.7
20260506164041 16 148 6.4 17.7 0.00 0.64 0.64 90 1007.7
20260506163540 16 165 6.4 17.7 0.00 0.64 0.64 90 1007.7
20260506163054 16 181 8.0 17.7 0.00 0.64 0.64 90 1007.8
20260506162540 16 176 4.8 17.7 0.00 0.64 0.64 91 1007.8
20260506162039 16 143 6.4 17.7 0.00 0.64 0.64 91 1007.7
20260506161604 16 0 6.4 19.3 0.00 0.64 0.64 91 1007.7
20260506161040 16 174 8.0 19.3 0.00 0.64 0.64 91 1007.8
20260506160540 16 158 3.2 17.7 0.00 0.64 0.64 92 1007.7
20260506160052 16 181 6.4 22.5 0.00 0.64 0.64 91 1007.7
20260506155541 16 128 3.2 22.5 0.00 0.64 0.64 92 1007.7
20260506155041 16 148 8.0 20.9 0.00 0.64 0.64 91 1007.9
20260506154610 16 178 8.0 22.5 0.03 0.64 0.64 92 1007.8
20260506154041 16 148 6.4 22.5 0.03 0.64 0.64 92 1007.8
20260506153541 15 183 8.0 20.9 0.05 0.64 0.64 92 1007.7
20260506153049 16 161 6.4 19.3 0.08 0.64 0.64 92 1007.8
20260506152541 16 182 8.0 22.5 0.08 0.64 0.64 92 1007.8
20260506152039 16 202 4.8 22.5 0.08 0.64 0.64 92 1007.8
20260506151551 16 197 8.0 19.3 0.08 0.64 0.64 93 1007.7
20260506151038 16 150 8.0 17.7 0.08 0.64 0.64 92 1007.7
20260506150541 16 171 4.8 12.9 0.08 0.64 0.64 93 1007.5
20260506150054 15 171 4.8 14.5 0.08 0.64 0.64 93 1007.6
20260506145545 15 146 3.2 19.3 0.08 0.64 0.64 92 1007.7
20260506145039 15 159 3.2 19.3 0.05 0.61 0.61 92 1007.8
20260506144601 15 146 6.4 19.3 0.05 0.61 0.61 92 1007.9
20260506144038 15 184 8.0 14.5 0.03 0.58 0.58 92 1008.0
20260506143538 15 142 4.8 14.5 0.03 0.58 0.58 92 1008.1
20260506142540 15 0 0.0 6.4 0.30 0.53 0.53 92 1008.6
20260506142042 15 150 0.0 9.7 0.25 0.48 0.48 92 1008.8
20260506141549 15 148 0.0 9.7 0.25 0.46 0.46 91 1008.7
20260506141042 15 146 1.6 9.7 0.23 0.43 0.43 91 1008.7
20260506140542 15 181 1.6 14.5 0.23 0.41 0.41 91 1008.5
20260506140057 15 178 1.6 14.5 0.15 0.33 0.33 91 1008.5
20260506135542 15 142 3.2 12.9 0.10 0.28 0.28 91 1008.3
20260506135037 15 168 1.6 12.9 0.10 0.25 0.25 91 1008.4
20260506134544 15 0 1.6 12.9 0.10 0.25 0.25 91 1008.3
20260506134042 15 163 4.8 12.9 0.10 0.25 0.25 91 1008.3
20260506133543 15 181 6.4 12.9 0.08 0.23 0.23 91 1008.3
20260506133049 15 150 1.6 12.9 0.08 0.23 0.23 91 1008.4
20260506132541 15 0 4.8 12.9 0.08 0.23 0.23 91 1008.3
20260506132044 15 157 4.8 11.3 0.08 0.23 0.23 91 1008.2
20260506131551 15 197 1.6 9.7 0.05 0.20 0.20 91 1008.2
20260506131039 15 0 3.2 11.3 0.05 0.20 0.20 90 1008.3